Simultaneous Nadir Overpasses (SNOs) Predictions

Prediction of SNOs between AURA and NPP Satellite Orbit:

Table of predicted SNOs for the next 14.0 days since TLE Epoch: 9/29/2017
Index Date (AURA) Time (AURA) Lat,Lon (AURA) SZA (AURA ) Date (NPP) Time (NPP) Lat,Lon (NPP) SZA (NPP ) Distance(km) Time Diff (sec)
1 09/29/2017 18:20:34 74.72, 142.53 100.21 09/29/2017 18:19:21 74.95, 141.05 100.51 50.13 73
2 09/29/2017 19:08:14 -79.58, -29.75 85.48 09/29/2017 19:08:15 -79.58, -29.70 85.49 0.97 1
3 10/02/2017 10:35:22 79.40, -82.79 95.75 10/02/2017 10:34:31 79.40, -82.79 95.79 0.27 51
4 10/02/2017 11:24:42 -79.67, 86.74 84.62 10/02/2017 11:25:08 -79.67, 86.78 84.65 0.88 26
5 10/05/2017 02:51:49 79.51, 33.86 96.57 10/05/2017 02:51:23 79.51, 33.91 96.58 1.04 26
6 10/05/2017 03:41:10 -79.74,-156.83 83.75 10/05/2017 03:42:01 -79.75,-156.75 83.80 1.82 51
7 10/07/2017 19:08:19 79.50, 149.67 97.56 10/07/2017 19:08:19 79.49, 149.52 97.59 3.17 0
8 10/07/2017 19:55:49 -81.82, 0.13 88.61 10/07/2017 19:57:02 -81.25, 0.08 88.94 62.94 73
9 10/10/2017 10:35:24 -79.42, 97.35 81.38 10/10/2017 10:34:31 -79.42, 97.41 81.35 1.27 53
10 10/10/2017 11:24:43 79.67, -93.25 98.29 10/10/2017 11:25:08 79.67, -93.24 98.27 0.21 25
11 10/13/2017 02:51:52 -79.47,-146.41 80.49 10/13/2017 02:51:25 -79.47,-146.47 80.46 1.18 27




NCC Satellite Simultaneous Nadir Overpasses (SNOs) Prediction Service
